Find Starlink 33946

NORAD ID: 64034 Int'l Des: 2025-102 Owner: SPXS Country: US Constellation: starlink operational
LEOCIRCULAR

現在のビュー

3D地球を読み込み中...

About Starlink 33946

Starlink 33946 (NORAD 64034) is a starlink constellation satellite (v2 mini) launched May 16, 2025 by SPXS of US. It operates in LEO, CIRCULAR orbit with a mass of 575.00 kg.

次回通過

Passes for default location (London). Set your location on the main map for personalized predictions.

高度履歴

Loading altitude history...

軌道要素

1 64034U 25102N 26234.86092888 .00003784 00000-0 32474-3 0 9998
2 64034 70.0012 55.4549 0002574 266.3115 93.7750 14.98335590 70895
Epoch: Aug 22, 2026 • Age: 33 hours

現在のステータス

高度 579.3 km
遠地点 / 近地点 N/A
速度 7.57 km/s
衛星直下点 44.33°N, 159.4°E
打ち上げ日 May 16, 2025
運用期間 1.2 years
タイプ internet

技術仕様

分類 Payload
質量 575.00 kg
乾燥質量 530.00 kg
総質量 575.00 kg
長さ 0.30 m
直径 4.10 m
スパン 29.00 m
形状 Box + pan
製造者 SPXS
バスタイプ Starlink V2MO
フェーズステータス In Orbit
所有者/国 SPXS/US

Most Searched